Погода в Верхнеимбатске

Погода в Верхнеимбатске : погода сейчас, прогноз погоды и архив. Всё, что Вы хотите узнать о погоде в Верхнеимбатске!

Хотите узнать прогноз погоды в Верхнеимбатске? Тогда Вам сюда: Погода в Верхнеимбатске

Поиск расширенной информации на нашем сайте:

Другие новости

Новости СМИ2

Главная страница сайта

Новости сайта

02.10.2013

Напоминаем, что на нашем новом сайте вы можете получить высокодетализированные прогнозы погоды по пунктам России, СНГ и мира (включающие важные для авиации метеовеличины, такие как направление и скорость ветра, видимость, явления погоды, количество и форма облачности, нижняя и верхняя граница облачности), а также ознакомиться с разнообразными материалами по авиационной метеорологии и подборкой полезных ссылок на эту тему.

Сайт Метеоцентр.Азия посвящён разработке технологий оптимизации авиаметеорологического обслуживания, включая проектирование и перспективное создание нескольких автоматизированных авиаметеорологических систем:
- система выпуска высокодетальных прогностических карт явлений погоды для нижнего воздушного пространства по России и ближнему зарубежью;
- система верификации прогнозов TAF (выпускаемых синоптиками официальных АМСГ РФ и ближнего зарубежья) и AUTOTAF (выпускаемых сайтом Метеоцентр.Азия) - выявление ошибок, онлайн-сопоставление с фактической погодой METAR, автоматическое внесение коррективов в прогнозы при резком отклонении фактической погоды от прогноза, подсчёт оправдываемости прогнозов по элементам и в целом;
- система обработки, анализа и отображения авиаметеорологической информации для применения провайдерами метеорологической информации.

Рекомендуем: Что представляют из себя цветы в шляпных коробках

Погода в Верхнеимбатске - сегодня

Время (UTC), дата Ветер
(°,м/с) 
Видим.   Явления Облачность Т
(°С)
Тd
(°С)
f(%) Тe
(°С)
Pmin
(гПа)
dP
(гПа)
Po
(мм)
O2
(г/м3)
Тmin Tmax R s Состояние
почвы
21 25.05.17 270 (З) н/о    3/0 средняя 
[Ac As]
+0.1 -5 69 +1  1005.6  0.1  750  303           
00 26.05.17 290 (З) 20000 м    8/0 верхняя 
[Ci fib]
+0.4 -6.6 59 1007.8  2.2  752  303  -1         
03 26.05.17 250 (З) 20000 м    10/0 средняя, верхняя 
[As trans|Ci fib]
+2.6 -6.8 50 +2  1008.5  0.8  752  301           
06 26.05.17 280 (З) 20000 м    10/3 600 м верхняя 
[Cu hum|Ci fib]
+5.8 -4.7 47 +4  1009.6  1.1  753  298           
09 26.05.17 270 (З) 20000 м    10/4 600 м средняя, верхняя 
[Cu hum|As trans|Ci fib]
+8 -4.4 41 +7  1010.4  0.9  754  296           
12 26.05.17 120 (ЮВ) 20000 м    8/6 600 м верхняя 
[Sc|Ci fib]
+8.8 -5.6 36 +10  1010.7  0.3  754  295    +9.5       
00 27.05.17 260 (З) 20000 м  {ливн. осадки}  1/1 600 м 
[Sc]
+0.8 -3.8 71 1019.7  0.7  761  306  -0.4    0.6     
03 27.05.17 240 (ЮЗ) 20000 м    8/6 600 м верхняя 
[Cu med, cong|Ci fib]
+4 -6.8 45 +5  1021.2  1.5  762  303           
06 27.05.17 160 (Ю) 20000 м    10/6 600 м верхняя 
[Cu med, cong|Cs]
+7.5 -7.1 35 +7  1020.2  -0.8  761  299           
09 27.05.17 140 (ЮВ) 20000 м    10/4 600 м средняя 
[Cu hum|As trans]
+6.2 -6.2 41 +5  1018.6  -1.7  760  300           
12 27.05.17 110 (В) 10 км  слаб. дождь  10/10 600 м 
[Frnb|Ns]
+4.4 +2.4 87 +3  1017.4  -1.2  759  301    +8.3  0.6     
15 27.05.17 090 (В) 10 км  слаб. дождь  10/10 300 м 
[Frnb|Ns]
+3.4 +2.7 95 +2  1015.6  -1.8  758  301           
18 27.05.17 080 (В) н/о  {дождь}  10/10 300 м 
[Frnb|Ns]
+3 +2.5 97 +2  1015.2  -0.4  757  301           
21 27.05.17 080 (В) н/о    10/10 300 м 
[Frnb|Ns]
+2.8 +2.3 97 +2  1014.6  -0.6  757  301           
00 28.05.17 090 (В) 20000 м    10/10 300 м 
[Frnb|Ns]
+3.2 +2.7 97 +3  1014.8  0.2  757  301  +2.7       
03 28.05.17 070 (В) 20000 м    10/10 300 м 
[Frnb|Ns]
+4.8 +4.3 97 +4  1015.1  0.3  757  299           
06 28.05.17 090 (В) 20000 м    10/10 600 м 
[Sc]
+7.8 +4.6 80 +7  1014.9  -0.1  757  296           
09 28.05.17 090 (В) 20000 м    8/0 средняя, верхняя 
[Ac trans|Ci fib]
+11.7 +4.2 60 +11  1013.1  -1.7  756  291           
12 28.05.17 090 (В) 20000 м    8/0 средняя, верхняя 
[Ac trans|Ci fib]
+13 +2.3 48 +13  1011.4  -1.7  755  290    +13       
15 28.05.17 070 (В) 20000 м    9/3 600 м средняя, верхняя 
[Sc|Ac trans|Cc]
+11.4 +2.1 53 +11  1009.9  -1.6  753  291           
18 28.05.17 080 (В) н/о    6/0 средняя, верхняя 
[Ac cast|Ci fib]
+10.2 +1.6 55 +10  1008.9  -1  753  292           
21 28.05.17 090 (В) 20000 м    10/4 600 м средняя, верхняя 
[Sc|Ac trans|Ci fib]
+9.8 +1.7 57 +9  1006.4  -2.5  751  292           
00 29.05.17 090 (В) 20000 м    10/0 средняя, верхняя 
[Ac lent|Cs]
+11.8 +2.9 54 +12  1005.9  -0.4  750  289  +9.5         
03 29.05.17 090 (В) 20000 м    10/0 средняя, верхняя 
[Ac trans|Cs]
+15.5 +4.1 47 +15  1003.9  -2  749  285           
06 29.05.17 080 (В) 3{11}  20000 м    8/0 верхняя 
[Cs]
+19 +3.9 37 +20  1002  -1.8  748  281           
Время (UTC), дата Ветер
(°,м/с) 
Видим.   Явления Облачность Т
(°С)
Тd
(°С)
f(%) Тe
(°С)
Pmin
(гПа)
dP
(гПа)
Po
(мм)
O2
(г/м3)
Тmin Tmax R s Состояние
почвы

Для получения пояснительной информации подведите курсор к названию столбца.

ПОГОДА в Верхнеимбатске - архив

Всё, что Вы хотите узнать о погоде в Верхнеимбатске - удобно и подробно!

Выберите нужную дату (начиная с 1 января 2015* года) и нажмите кнопку "Найти".
Будут отображены архивные сводки погоды по пункту Верхнеимбатск, начиная с указанной даты.


Отображать данные в формате CSV (для использования в таблицах Excel)


Внимание! Наш архив погоды предназначен исключительно для личного некоммерческого использования в познавательных целях. Если Вам необходимы официальные справки о состоянии погоды (для производственных, юридических, коммерческих и т.п. целей), обращайтесь в органы Росгидромета.

*Примечание: данная дата относится к архиву по метеостанциям СССР (Россия, СНГ, Балтия).
Архив по метеостанциям Зарубежной Европы и Азии (кроме Китая) хранится 10 дней, по другим регионам земного шара (Китай, Африка, Америка, Австралия, Океания) - 1 день.

Верхнеимбатск - район местоположения метеостанции


Название, широта, долгота, высота метеостанции:
Верхнеимбатск 63.2°ш. 87.9°д. 46 м над ур. моря [Российская Федерация]

Дополнительная информация

В oтличие oт бoльшинства пoгoдных сайтoв мы публикуем пoдрoбную метеoинфoрмацию в детальнoм прoфессиoнальнoм фoрмате.

Характеристики температуры и влажнoсти вoздуха измеряются на высoте 2 м в тени вдали oт зданий и деревьев.
Скoрoсть ветра измеряется на высoте 10 м (на урoвне рoста челoвека скoрoсть ветра ниже в 1.5-2 раза). Если метеoстанция нахoдится в гoрoде или в лесу, тo скoрoсть ветра занижена на 2-4 м/с пo сравнению с oткрытым местoм. Скoрoсть ветра над акватoриями крупных рек и oзёр, а также на вершинах хoлмoв на 2-5 м/с выше, чем в oбычных услoвиях.
Атмoсфернoе давление в разных тoчках местнoсти мoжет значительнo oтличаться oт давления на метеoстанции, в зависимoсти oт услoвий рельефа (при пoдъёме на 10 м давление пoнижается примернo на 1 мм рт.ст.).